Location: Creston
(40.9870°N, 81.8938°W)
Time: 09:21:00
(UTC+00:00)

NOSS 3-3 (A) - Pass Details

Date: 29 October 2020
Orbit: 826 x 1387 km, 63.4° (Epoch: 22 November)

Event Time Altitude Azimuth Distance (km) Brightness Sun altitude
Rises 23:23:23 0° 204° (SSW) 3,375 7.3 -11.3°
Reaches altitude 10° 23:25:45 10° 202° (SSW) 2,475 6.6 -11.7°
Maximum altitude 23:31:23 69° 120° (ESE) 972 3.8 -12.8°
Drops below altitude 10° 23:37:44 10° 39° (NE) 2,771 6.0 -14.0°
Enters shadow 23:38:34 - 38° (NE) 3,086 6.2 -14.1°
